Location: Christchurch
(43.5330°S, 172.6330°E)
Time: 16:37:01
(UTC+12:00)

USA 32 - Pass Details

Date: 24 January 2019
Orbit: 779 x 781 km, 85.0° (Epoch: 13 April)

Event Time Altitude Azimuth Distance (km) Brightness Sun altitude
Rises 21:31:49 0° 358° (N) 3,258 6.9 -5.2°
Reaches altitude 10° 21:34:09 10° 358° (N) 2,339 6.2 -5.5°
Maximum altitude 21:39:25 87° 87° (E) 798 4.1 -6.3°
Drops below altitude 10° 21:44:46 10° 174° (S) 2,372 7.0 -7.1°
Sets 21:47:09 0° 174° (S) 3,308 7.7 -7.5°
